Location: Asheville, NC
(35.6000°N, 82.5500°W)
Time: 04:52:46
(UTC-04:00)

Tiangong 1 - Pass Details

Date: 15 October 2017
Orbit: 293 x 320 km, 42.8° (Epoch: 19 October)

Event Time Altitude Azimuth Distance (km) Brightness Sun altitude
Rises 20:14:41 0° 296° (WNW) 2,035 6.0 -17.1°
Reaches altitude 10° 20:16:40 10° 295° (WNW) 1,199 4.6 -17.5°
Enters shadow 20:19:13 76° 257° (WSW) 320 0.7 -18.0°
